This is the latest recevied weather packets stored in our database for station/object VE2XOX. If no packets are shown the sender has not sent any weather packets the latest 10 day(s).
| Time | Temp. | Humidity | Pressure | Rain* | Wind** | Luminosity | Snow |
|---|---|---|---|---|---|---|---|
| 1778028322 | 13.89° C | 90% | 1001.4 hPa | 2.03 mm | - | - | - |
| 1778028012 | 14.44° C | 90% | 1001.3 hPa | 3.05 mm | - | - | - |
| 1778027720 | 14.44° C | 90% | 1001.2 hPa | 6.1 mm | - | - | - |
| 1778027429 | 14.44° C | 90% | 1001 hPa | 7.11 mm | - | - | - |
| 1778027115 | 14.44° C | 90% | 1001.1 hPa | 7.11 mm | - | - | - |
| 1778026821 | 14.44° C | 90% | 1001 hPa | 7.11 mm | - | - | - |
| 1778026534 | 14.44° C | 90% | 1000.9 hPa | 7.11 mm | - | - | - |
| 1778026218 | 14.44° C | 90% | 1001 hPa | 7.11 mm | - | - | - |
| 1778025925 | 14.44° C | 90% | 1000.9 hPa | 7.11 mm | - | - | - |
| 1778025321 | 14.44° C | 89% | 1000.8 hPa | 7.11 mm | - | - | - |
| 1778025027 | 14.44° C | 89% | 1000.7 hPa | 6.1 mm | - | - | - |
| 1778024721 | 15° C | 88% | 1000.7 hPa | 5.08 mm | - | - | - |
| 1778024425 | 15° C | 88% | 1000.6 hPa | 3.05 mm | - | - | - |
| 1778024113 | 15° C | 88% | 1000.5 hPa | 1.02 mm | - | - | - |
| 1778023825 | 15° C | 88% | 1000.3 hPa | 0 mm | - | - | - |
| 1778023529 | 15° C | 87% | 1000.3 hPa | 1.02 mm | - | - | - |
| 1778023215 | 15° C | 87% | 1000.1 hPa | 1.02 mm | - | - | - |
| 1778022920 | 15° C | 87% | 1000.1 hPa | 1.02 mm | - | - | - |
| 1778022631 | 15° C | 87% | 999.9 hPa | 1.02 mm | - | - | - |
| 1778022315 | 15° C | 87% | 999.8 hPa | 1.02 mm | - | - | - |
| 1778022019 | 15° C | 86% | 999.9 hPa | 1.02 mm | - | - | - |
| 1778021712 | 15° C | 87% | 999.9 hPa | 1.02 mm | - | - | - |
| 1778021418 | 15° C | 86% | 999.6 hPa | 1.02 mm | - | - | - |
| 1778021132 | 15° C | 86% | 999.4 hPa | 1.02 mm | - | - | - |
| 1778020815 | 15° C | 86% | 999.1 hPa | 1.02 mm | - | - | - |
* Rain latest hour (hover to see other rain measurements)
** Current wind speed in m/s (hover to see current wind gust speed)